Regional Weather Roundup
Issued by NWS

Home | Current Version | Previous Version | Graphics & Text | Print | Product List | Glossary On
Versions: 1 2 3 4 5 6 7 8 9 10 11 12 13 14 15 16 17 18 19 20 21 22 23 24 25 26 27 28 29 30 31 32 33 34 35 36 37 38 39 40 41 42 43 44 45 46 47 48 49 50
195
ASUS45 KBOI 101110
RWRID

IDAHO REGIONAL WEATHER ROUNDUP
NATIONAL WEATHER SERVICE BOISE ID
400 AM MST SAT DEC 10 2016

NOTE: "FAIR" INDICATES FEW OR NO CLOUDS BELOW 12000 FEET
WITH NO SIGNIFICANT WEATHER AND/OR OBSTRUCTIONS TO VISIBILITY

IDZ012-014-101200-
SOUTHWEST IDAHO


CITY           SKY/WX    TMP DP  RH WIND       PRES   REMARKS
BOISE          CLOUDY    32  31  96 SE3       29.89F FOG
CALDWELL       MIX PCPN  32  30  92 CALM      29.91F FOG
MOUNTAIN HOME  LGT RAIN  34  34 100 W3        29.90F FOG
$$

IDZ016-017-101200-
SOUTHCENTRAL IDAHO


CITY           SKY/WX    TMP DP  RH WIND       PRES   REMARKS
BURLEY         LGT RAIN  37  35  92 SW12      29.89F WCI  29
JEROME         LGT RAIN  36  36 100 SE5       29.91F FOG     WCI  32
TWIN FALLS     LGT RAIN  39  36  89 S10       29.90F WCI  32
$$

IDZ019>023-101200-
SOUTHEAST IDAHO


CITY           SKY/WX    TMP DP  RH WIND       PRES   REMARKS
IDAHO FALLS    LGT RAIN  35  32  88 S17G25    29.89F WCI  25
POCATELLO      LGT RAIN  36  33  89 SW13      29.92F WCI  27
REXBURG        CLOUDY    27  26  96 NW3       29.88F FOG
$$

IDZ006-010-011-018-031-032-101200-
CENTRAL IDAHO MOUNTAINS


CITY           SKY/WX    TMP DP  RH WIND       PRES   REMARKS
MCCALL         LGT SNOW  32  30  92 SE7       29.78F FOG     WCI  26
HAILEY         LGT SNOW  32  32 100 S6        29.89F WCI  26
STANLEY          N/A     34  32  92 SE5       29.81F WCI  30
SALMON         CLOUDY    19  18  93 CALM      29.87F
CHALLIS        LGT SNOW  21  21 100 CALM      29.82F FOG
$$

IDZ002-004-006-007-026-101200-
NORTHERN IDAHO


CITY           SKY/WX    TMP DP  RH WIND       PRES   REMARKS
LEWISTON       CLOUDY    26  23  88 W5        29.81F WCI  20
LOWELL           N/A     28  25  88 CALM      29.88F
COEUR D`ALENE  LGT SNOW  18  16  93 N17       29.80F FOG     WCI   2
MULLAN PASS    SNOW      19  17  92 S6        29.64F VSB 1/2 WCI  11
$$




USA.gov is the U.S. government's official web portal to all federal, state and local government web resources and services.